Location: Newark
(33.9035°S, 18.4112°E)
Time: 04:19:06
(UTC+00:00)

Envisat - Visible Passes

Search period start: 19 January 2020 00:00
Search period end: 29 January 2020 00:00
Orbit: 764 x 766 km, 98.1° (Epoch: 18 January)

Date Brightness Start Highest point End Pass type
(mag) Time Alt. Az. Time Alt. Az. Time Alt. Az.
20 Jan 6.0 18:33:38 10° SSW 18:37:19 20° WSW 18:40:58 10° WNW visible
22 Jan 6.6 19:01:05 10° SW 19:02:27 11° WSW 19:03:49 10° WSW visible
23 Jan 5.7 18:21:57 10° SSW 18:26:08 25° WSW 18:30:16 10° WNW visible
25 Jan 6.6 03:19:33 10° E 03:21:35 12° ESE 03:23:36 10° SE visible
25 Jan 6.3 18:48:39 10° SSW 18:51:19 14° WSW 18:53:59 10° W visible
28 Jan 6.1 18:36:43 10° SSW 18:40:09 18° WSW 18:43:35 10° WNW visible
